{"data":{"norad_id":58052,"intl_designator":"2023-158B","name":"STARLINK-30575","alt_names":[],"object_type":"PAYLOAD","status":"ACTIVE","operator":null,"country":"US","launch_date":"2023-10-13","launch_site_code":"AFETR","launch_vehicle":null,"mission":null,"orbit_class":"UNKNOWN","rcs_meters":null,"size_class":null,"mass_kg":null,"dimensions":null,"purposes":["comms"],"wikipedia_slug":null,"has_3d_model":false,"image_url":null,"decayed_at":null,"tle_current":{"epoch":"2026-09-19T14:40:49.415520Z","epoch_age_seconds":214424,"freshness":"STALE","line1":"1 58052U 23158B   26262.61168305 -.00006159  00000+0 -21432-3 0  9994","line2":"2 58052  43.0034  12.2418 0000897 260.1617  99.9133 15.27606998163222","mean_motion":15.27606998,"eccentricity":8.97e-5,"inclination_deg":43.0034,"raan_deg":12.2418,"arg_perigee_deg":260.1617,"mean_anomaly_deg":99.9133,"bstar":-0.00021432,"rev_number":16322,"period_min":94.265082700282,"perigee_km":482.35281436438,"apogee_km":483.58369664722,"semimajor_km":6861.1052555058,"source":"CELESTRAK","updated_at":"2026-09-21T09:00:33.777116Z"}}}